Starlink 32874

operational
NORAD ID: 62954 Int'l Des: 2025-029 Owner: SPXS Country: US Constellation: starlink
LEOCIRCULAR

关于 Starlink 32874

正在加载描述...

实时位置

正在加载3D地球...

即将过境

高度历史

Altitude vs Time

uPlot chart will show altitude changes over time

两行轨道根数

1 62954U 25029G 25352.90839841 .00023191 00000-0 79256-3 0 9991
2 62954 53.1597 245.2637 0001308 88.0233 272.0918 15.30204780 48992
Epoch: Dec 18, 2025 • Age: 21 hours

当前状态

高度 475.9 km
速度 7.63 km/s
星下点 0.54°N, 47.75°E
发射日期 Feb 11, 2025
运行时间 0.8 years
类型 internet

技术详情

分类 Payload
质量 730.00 kg
干质量 700.00 kg
总质量 730.00 kg
长度 0.30 m
直径 4.10 m
跨度 29.00 m
形状 Box + pan
制造商 SPXS
平台类型 Starlink V2M
阶段状态 In Orbit
所有者/国家 SPXS/US

大型星座

Loading constellations...